Wind_Speed
10 11 12 12 13 14 14 15 15 16 15 15 15 15 15 14 14 14 14 15 15 17 18 18 19 20 20 21 22 23 25 26 27 29 30 31 32 32 32 32 32 31 32 32 32 32 32 31 31 30 30 31 30 30 29 29 30 31 31 30 30 30 28 27 27 29 31 33 34 34 32 30 29 28 27 25 24 24 23 22 22 22 21 18 17
12 12 13 14 16 16 17 18 18 18 18 17 17 17 17 16 16 16 17 17 18 19 20 20 21 21 22 23 24 25 26 27 28 29 31 32 32 32 32 32 32 31 31 32 32 32 32 31 30 29 29 29 29 28 29 29 30 31 30 30 29 29 28 26 25 26 28 29 31 34 33 29 27 25 24 24 23 22 20 20 20 20 21 20 19
14 13 14 15 17 18 19 20 20 20 20 20 20 19 19 19 18 19 19 20 20 21 21 21 22 22 23 24 24 25 25 26 28 29 31 31 31 32 32 31 31 30 30 31 31 31 30 29 28 27 27 28 27 27 27 27 28 29 28 29 29 28 27 25 23 23 25 26 25 26 28 28 27 25 22 22 20 19 20 20 20 19 19 20 19
15 14 15 16 18 21 22 23 23 23 24 23 23 22 21 21 21 22 22 22 22 23 23 23 23 23 24 24 25 25 26 26 27 28 30 31 31 31 31 30 29 29 29 30 30 30 30 28 26 25 25 26 26 25 25 25 26 26 26 27 27 27 26 25 22 21 23 24 20 18 20 22 22 22 23 20 15 16 19 19 20 20 18 17 17
18 17 16 17 19 21 22 24 25 26 27 26 25 25 24 24 24 25 25 25 24 24 24 24 24 24 25 25 26 26 26 27 27 28 29 30 31 31 30 29 28 27 27 28 29 29 29 27 25 24 23 24 25 25 24 24 24 24 24 25 25 25 26 25 21 19 20 21 19 18 16 14 16 21 26 23 17 15 16 16 19 20 19 18 17
20 19 18 19 20 21 23 25 27 29 30 28 27 27 27 27 28 28 27 26 26 26 25 25 26 26 27 27 27 27 27 28 28 28 29 29 30 30 30 29 27 25 25 26 27 28 28 27 24 22 22 22 23 24 23 23 23 23 23 24 23 23 24 25 22 18 18 18 19 20 17 16 21 24 24 25 25 21 18 18 20 19 20 21 20
22 22 21 21 21 22 24 25 28 30 29 29 29 30 30 30 31 31 30 29 28 27 27 27 27 27 27 27 27 27 28 29 28 28 29 29 30 30 30 29 27 25 24 25 26 27 27 26 24 22 21 21 22 23 22 22 22 22 22 23 22 22 22 23 22 20 18 17 18 20 20 20 23 23 22 24 30 30 27 25 24 23 23 24 24
24 24 23 22 22 23 24 25 27 29 29 30 32 33 33 33 34 34 32 31 30 29 29 28 28 28 28 27 27 27 28 29 29 29 29 29 29 29 29 28 27 25 24 25 26 26 26 26 24 22 20 20 22 22 21 21 21 21 21 21 21 21 21 21 22 20 19 18 18 19 20 21 22 23 23 23 24 31 37 34 30 29 29 29 28
26 26 25 24 24 23 24 23 25 27 30 33 34 34 35 36 37 37 36 34 32 31 30 30 30 29 28 28 27 27 28 28 29 29 29 29 29 29 29 29 28 26 24 25 26 26 26 26 24 22 20 20 21 22 21 21 21 21 21 20 21 20 19 20 21 20 19 19 19 19 21 21 22 22 23 22 22 27 35 34 32 34 33 32 31
28 28 27 26 25 25 25 25 26 27 30 33 35 36 38 39 40 41 39 37 35 34 33 32 31 31 30 28 28 27 27 27 28 29 28 28 29 29 29 29 28 26 25 25 26 26 25 25 24 22 21 20 21 21 20 20 20 20 20 20 20 19 19 20 20 20 20 20 19 20 21 21 22 22 21 22 22 23 28 30 30 33 36 35 33
28 28 28 28 27 27 27 28 28 28 30 32 36 38 40 42 43 44 43 41 39 37 35 34 33 33 32 29 28 28 27 27 27 28 28 28 29 29 29 29 28 27 26 25 25 25 25 25 24 23 21 20 20 20 20 20 20 20 20 19 19 19 19 19 20 20 20 20 19 20 21 21 22 23 22 22 22 23 27 31 31 31 35 38 35
28 28 29 29 29 30 30 30 29 29 31 33 35 38 40 42 44 46 46 44 43 41 39 37 36 35 34 31 30 28 27 27 27 28 28 28 29 29 29 29 29 28 27 26 25 25 25 24 24 23 21 21 20 20 20 20 20 19 19 19 19 19 19 19 20 20 20 20 20 20 20 21 21 22 23 22 23 24 25 31 33 30 33 38 36
29 30 31 31 31 32 31 31 30 31 32 33 34 37 39 42 45 47 48 47 46 45 43 41 39 38 36 34 32 29 28 28 28 28 28 29 29 29 29 29 29 28 28 27 26 25 25 25 24 23 22 21 20 20 20 19 19 19 19 19 19 18 18 20 20 20 20 21 21 20 21 21 22 22 22 23 24 24 24 29 31 28 30 37 37
29 31 32 33 33 33 33 33 32 32 33 33 35 36 39 42 44 47 49 49 49 48 46 44 42 41 38 36 34 32 30 29 29 29 28 28 28 29 29 29 29 28 28 27 26 26 26 25 24 23 22 21 21 20 19 19 19 19 19 19 19 18 18 20 20 20 20 20 20 21 21 21 21 21 22 23 23 23 23 25 28 29 31 35 36
30 33 33 34 35 35 35 35 34 35 35 35 36 37 39 40 42 45 47 49 50 50 49 47 45 43 41 39 37 34 32 31 30 29 28 27 27 28 28 29 29 28 28 27 27 26 26 25 24 23 22 21 21 20 19 19 19 19 19 19 18 18 19 19 19 20 20 20 20 20 21 21 21 20 21 23 23 23 23 23 24 27 31 35 35
32 33 35 36 37 37 37 37 37 37 37 37 37 37 38 39 40 42 44 47 49 49 49 48 47 45 43 42 40 37 34 32 30 28 27 26 26 27 27 28 29 28 28 28 27 27 27 26 25 24 22 21 21 20 20 19 19 19 19 19 18 17 19 20 19 19 19 19 19 20 21 21 20 20 21 22 22 22 23 23 23 24 27 32 34
32 34 36 37 38 39 39 39 39 39 38 38 38 37 38 39 39 41 42 45 47 48 48 48 48 47 45 44 42 39 35 32 29 27 25 25 25 25 26 27 28 28 28 27 27 27 27 26 25 23 22 21 21 20 20 20 20 20 19 19 18 18 19 20 19 19 19 19 19 19 20 21 20 20 21 21 21 22 23 23 24 24 24 27 30
32 34 36 38 39 39 40 40 40 39 39 39 38 38 39 40 41 41 43 44 46 48 49 49 49 48 47 45 43 40 36 33 29 27 25 24 24 24 25 26 28 28 28 27 27 27 26 25 24 23 22 21 21 20 20 20 20 20 19 19 19 18 20 20 19 19 19 19 20 19 20 20 20 20 20 21 21 22 23 23 24 24 24 26 27
34 36 38 40 40 40 40 39 39 39 38 38 38 38 40 41 42 43 44 45 46 48 50 50 50 50 49 47 44 41 36 33 30 27 25 25 23 22 23 25 27 28 28 27 27 26 26 25 24 23 22 22 21 21 20 20 20 20 20 19 19 19 20 20 18 19 19 19 20 19 19 20 19 20 20 21 21 22 23 23 24 25 25 27 28
38 40 42 44 44 43 41 40 39 38 38 37 37 39 41 42 43 44 45 46 47 49 50 51 52 52 51 49 46 42 37 33 30 27 26 24 22 20 21 24 26 28 28 26 26 26 25 25 24 23 22 21 21 21 20 20 20 20 19 19 19 19 20 20 19 19 19 19 19 20 20 19 19 20 21 21 22 22 23 23 24 25 25 27 28
40 42 44 47 47 46 43 41 40 38 37 37 38 40 41 42 43 44 45 47 48 49 50 52 53 54 53 51 48 42 36 33 30 28 26 24 21 20 20 21 25 27 27 26 26 25 25 25 24 23 22 22 21 21 20 20 20 20 20 20 20 19 20 20 19 19 18 18 20 20 20 20 19 21 22 21 22 22 22 23 23 25 26 25 26
40 42 44 46 47 46 43 40 38 37 37 38 39 41 42 43 44 45 46 46 47 48 50 52 54 55 55 53 49 43 36 34 32 29 26 23 22 21 19 20 24 26 27 26 25 25 25 24 23 23 22 22 21 21 20 20 20 20 20 20 20 20 20 20 20 20 19 19 20 21 21 20 19 21 22 21 22 21 22 24 23 24 26 25 25
39 41 43 42 42 41 39 38 37 37 36 37 39 40 42 43 44 44 45 45 46 47 49 51 54 55 55 53 50 43 38 36 33 29 26 23 22 21 19 20 23 25 25 25 25 24 24 24 23 23 23 22 22 21 21 20 20 20 21 20 20 20 20 20 20 20 20 20 21 21 21 20 20 21 22 21 21 21 21 23 24 23 25 26 25
38 40 38 35 35 35 36 37 37 36 36 37 38 39 41 42 42 44 45 46 47 48 50 53 55 56 56 54 50 45 41 37 33 28 24 22 22 21 19 20 22 23 24 24 24 24 23 23 24 24 23 23 22 22 21 20 20 21 21 21 20 20 20 21 21 21 20 20 21 22 21 20 20 21 22 21 20 21 21 22 23 23 24 25 25
38 37 35 33 34 34 34 33 32 32 33 34 36 37 38 40 41 43 45 46 47 50 54 57 58 58 57 54 49 44 39 34 29 24 21 22 22 21 20 20 21 22 23 23 23 23 23 24 25 25 24 23 23 22 21 21 21 21 21 21 20 20 20 21 21 21 21 21 21 22 21 20 20 22 22 21 20 21 21 21 22 23 23 24 25
37 36 34 33 32 30 29 29 30 32 34 36 38 39 40 40 40 41 43 45 46 50 55 59 59 58 56 51 46 41 34 28 24 21 20 22 23 22 20 20 20 21 22 22 22 23 24 25 26 25 25 24 23 22 22 22 22 21 21 21 21 21 21 21 21 21 21 21 21 21 21 20 21 22 22 21 21 20 21 21 22 23 23 24 26
33 31 30 29 29 29 31 34 36 37 38 39 39 39 40 40 41 42 43 45 47 51 55 57 57 55 52 48 42 35 29 23 19 20 21 23 23 22 21 20 20 20 20 20 22 23 24 26 26 25 24 24 23 23 22 22 22 21 21 21 21 21 22 22 22 21 21 21 21 21 21 21 21 22 22 21 21 20 21 21 22 22 23 24 26
28 28 29 31 32 34 36 36 36 35 35 36 37 38 39 40 41 41 42 44 46 50 54 54 52 48 45 42 36 29 22 19 19 21 22 22 23 22 21 20 19 19 19 19 21 24 25 26 26 25 24 24 24 23 23 22 22 21 21 21 22 22 22 22 22 22 21 21 21 22 22 22 22 22 21 20 20 20 21 22 22 22 23 25 26
29 31 32 33 33 33 32 31 32 34 36 39 40 41 42 42 43 43 43 42 43 46 50 49 44 41 39 35 28 21 17 19 22 22 22 22 22 21 21 20 19 18 18 19 22 25 26 26 25 25 24 24 24 23 22 22 21 21 21 21 22 22 22 22 22 22 22 22 23 23 23 23 23 22 21 21 21 21 22 23 23 22 23 24 25
31 31 30 29 28 28 30 33 36 39 41 42 42 43 43 43 44 44 43 41 41 42 44 42 37 34 30 24 18 16 19 22 22 22 21 21 21 21 21 20 19 19 19 21 23 25 25 25 24 24 24 24 24 23 22 21 21 21 21 21 22 22 21 22 22 22 23 23 24 25 25 24 24 24 23 22 22 22 23 24 24 23 23 24 25
28 27 26 26 29 33 37 40 40 41 40 40 41 42 42 41 41 42 41 39 37 33 30 27 23 19 16 13 15 19 22 22 22 21 20 20 20 20 20 19 19 20 21 22 24 24 24 24 24 24 24 24 23 22 21 21 20 20 20 20 22 22 22 23 24 25 25 25 26 28 28 28 27 27 26 25 24 23 23 24 24 24 25 27 28
25 24 26 32 37 39 40 40 39 38 38 39 40 41 41 41 41 40 36 30 23 16 11 9 9 10 13 17 21 22 22 21 20 20 20 20 20 20 20 20 21 21 22 23 23 23 24 24 24 24 24 23 23 21 20 21 20 20 19 19 20 21 23 25 26 27 27 28 29 30 29 29 29 28 28 27 26 25 24 23 23 23 25 28 29
23 26 32 36 37 37 37 36 35 35 36 37 37 38 38 38 35 32 27 20 16 15 16 17 17 18 20 21 22 21 20 19 19 19 19 20 20 20 21 21 21 21 22 22 23 23 24 24 24 24 24 23 23 21 20 20 20 21 19 18 19 21 24 26 28 29 30 30 30 30 30 30 29 28 28 27 26 26 24 23 23 24 26 28 28
26 30 32 33 33 34 34 33 32 34 37 38 36 33 33 32 30 29 27 25 24 24 23 20 19 19 19 19 19 19 18 18 18 18 19 19 20 21 21 21 21 21 21 22 23 23 24 23 23 23 24 24 22 20 20 20 20 21 19 17 19 23 26 28 30 30 31 31 31 30 30 30 29 28 27 26 26 25 24 24 24 25 26 27 27
29 30 30 31 32 33 32 32 34 38 40 38 34 30 29 29 30 30 30 29 27 24 21 20 19 19 18 17 17 17 16 17 17 17 18 19 20 21 20 20 21 21 21 22 23 23 23 23 23 23 24 24 22 20 20 20 20 20 19 19 21 25 27 29 30 31 31 31 31 30 29 29 28 27 26 26 26 24 24 25 26 27 27 27 27
27 29 30 30 30 29 30 33 36 39 38 35 33 30 28 28 28 28 28 26 23 21 21 21 21 19 17 17 17 16 16 16 17 18 19 19 20 20 20 20 21 21 22 23 23 23 23 22 22 23 24 24 22 20 20 21 21 20 19 20 23 25 28 30 31 31 31 30 29 28 27 27 27 27 27 26 24 23 25 27 28 28 29 29 29
26 28 27 26 27 28 31 34 37 38 34 31 29 26 25 26 26 25 23 21 20 22 23 23 22 19 18 18 18 18 18 19 20 21 21 21 20 20 20 20 21 22 22 22 22 23 22 23 23 22 23 24 22 20 20 20 21 20 20 21 24 26 28 30 30 29 28 27 26 25 25 26 27 28 27 25 23 22 24 26 28 29 30 31 33
26 27 24 25 28 30 34 36 37 34 30 27 25 22 23 24 22 20 19 20 21 23 23 23 22 20 19 19 19 20 21 22 23 22 22 21 20 20 20 21 21 22 22 21 22 22 23 23 23 22 23 24 23 20 19 20 21 20 20 22 25 27 28 29 28 27 27 26 26 26 26 26 27 27 26 24 22 22 24 27 29 30 32 33 33
25 22 22 25 30 33 36 36 32 29 27 26 23 21 21 21 19 19 21 23 24 23 22 21 21 21 20 20 21 22 23 23 23 22 21 20 20 20 20 20 21 21 21 21 22 23 23 23 23 23 22 23 23 21 19 20 21 21 20 21 24 26 27 27 27 27 27 27 28 27 26 25 25 24 23 23 23 23 25 27 28 30 32 32 30
23 20 22 27 31 35 34 31 28 26 26 26 24 21 21 21 21 23 24 24 23 21 20 21 21 21 22 22 22 22 22 22 22 21 20 19 19 19 19 20 20 21 21 22 22 23 24 23 22 22 22 22 23 22 20 20 21 21 19 20 23 25 26 26 27 28 29 28 27 26 25 24 24 23 24 25 25 23 23 25 28 29 30 29 29
20 21 25 30 32 31 28 25 24 24 25 25 24 22 21 22 23 23 23 22 21 20 20 21 21 22 22 21 21 21 21 21 21 20 20 19 19 19 19 20 20 21 21 22 22 23 24 23 21 21 21 21 22 22 21 20 21 21 20 19 21 24 25 26 27 27 27 26 25 24 24 24 24 26 28 30 27 22 21 24 27 27 26 25 26
19 23 28 30 30 26 23 23 23 23 24 24 24 23 22 22 22 22 21 21 20 20 20 21 21 21 21 21 20 20 20 20 19 19 20 19 19 19 19 20 20 21 22 22 23 23 23 23 22 21 21 21 21 21 21 21 20 21 21 19 20 22 23 24 25 26 26 26 26 26 27 28 29 31 32 30 25 22 22 25 26 26 25 25 26
22 27 29 28 25 23 22 21 21 22 23 23 23 23 22 21 21 20 20 20 20 20 20 20 20 20 20 20 20 19 19 19 18 19 19 19 19 19 19 20 20 21 22 23 23 22 23 23 22 22 21 21 20 19 20 20 20 21 21 18 18 19 20 21 23 25 26 27 29 30 31 32 32 31 29 25 23 23 25 26 26 27 28 29 30
25 27 26 24 22 21 21 20 20 22 22 22 22 22 21 21 21 20 20 20 20 20 20 20 20 20 20 20 19 19 18 18 18 19 19 20 20 19 19 20 20 21 22 23 22 22 22 23 24 23 21 20 19 18 18 18 18 18 18 17 17 18 19 21 23 26 28 30 31 31 31 30 28 26 25 25 26 27 28 28 28 29 31 32 32
25 24 22 20 20 20 19 19 19 20 20 20 21 21 21 21 21 21 21 21 21 21 21 21 21 20 20 20 20 19 18 18 18 19 19 20 20 20 20 19 19 20 22 22 21 21 22 23 24 24 22 19 17 16 15 15 15 16 17 18 19 19 21 22 25 27 28 28 28 28 27 27 26 25 27 29 30 31 30 29 28 29 30 32 32
23 21 19 18 18 18 18 18 19 19 19 20 20 20 21 22 22 22 22 22 21 22 21 21 21 21 21 21 21 20 19 19 18 19 20 20 20 20 20 20 19 20 20 21 21 21 22 23 24 24 22 18 16 15 15 15 16 18 20 20 21 21 21 20 21 23 24 24 25 26 26 25 25 25 26 28 29 28 27 26 27 28 31 33 34
20 18 17 17 17 18 18 18 18 18 19 19 19 20 21 21 22 22 22 22 22 22 22 21 21 21 21 21 21 21 20 20 19 19 20 20 19 20 21 20 19 19 19 20 21 22 23 23 23 21 20 19 19 20 21 21 21 22 22 21 20 19 19 19 20 21 23 25 26 26 26 25 26 27 26 27 28 28 28 29 30 31 33 34 34
17 16 16 17 17 18 18 18 18 18 19 19 19 20 20 21 21 21 22 22 22 21 22 21 21 21 21 21 21 21 21 21 20 20 20 20 19 19 20 20 19 19 20 20 22 23 23 22 21 21 23 25 27 27 27 27 27 26 23 21 20 21 21 22 23 23 24 26 26 26 26 27 27 28 27 27 28 29 30 31 32 33 35 35 33
16 15 16 16 17 17 17 18 18 18 19 19 19 19 20 20 21 21 22 22 23 22 22 22 21 21 21 21 21 21 21 22 22 21 20 20 19 19 21 21 20 19 20 21 22 23 22 21 22 25 28 30 32 33 32 31 30 27 24 23 23 24 24 24 24 24 25 26 26 25 25 25 26 28 29 29 30 31 32 33 34 35 35 33 31
14 14 14 15 15 17 17 17 18 18 18 19 19 19 20 20 21 22 22 23 24 24 23 23 22 22 22 22 23 22 22 23 23 23 23 22 21 20 20 22 22 21 21 22 23 24 23 24 27 29 29 29 32 32 31 30 27 25 24 24 24 24 25 25 26 26 27 27 26 26 26 27 29 30 31 31 31 32 33 35 35 34 33 31 30
14 13 14 14 15 16 17 17 17 18 18 18 19 20 20 20 21 22 22 23 24 24 24 24 23 23 24 24 24 24 24 24 24 24 25 25 25 23 20 20 21 22 21 20 20 21 22 23 25 27 26 28 29 28 27 27 27 28 28 28 28 29 29 28 29 29 29 29 29 29 30 30 29 30 31 32 32 34 35 35 34 32 30 29 29
Wind_Direction
272 264 254 245 239 235 234 233 231 231 231 230 231 231 232 237 244 251 259 265 269 273 276 280 282 285 288 290 293 296 298 299 299 298 296 296 295 294 293 292 292 291 291 289 288 287 286 285 285 285 285 283 283 282 281 279 277 276 276 276 276 277 276 275 276 277 279 279 278 276 275 277 279 279 279 277 274 272 271 270 268 268 267 263 260
263 261 252 244 239 237 235 234 233 233 233 233 235 237 239 242 248 256 262 268 273 276 278 282 284 288 292 295 298 301 303 303 302 300 298 297 296 295 294 294 293 292 290 288 287 286 286 286 286 286 286 285 284 284 284 283 281 281 281 281 280 280 280 279 279 279 280 282 284 283 280 277 274 274 274 272 269 268 267 263 258 261 265 264 261
258 260 254 247 243 241 239 238 237 236 236 237 238 240 244 247 252 258 264 270 274 278 282 286 289 293 297 301 304 306 308 307 305 303 300 299 298 297 296 295 294 292 290 289 287 286 286 286 286 286 285 284 283 282 282 282 282 283 284 284 283 282 283 283 284 285 284 286 289 289 290 290 285 277 270 266 266 263 257 253 253 256 262 263 257
258 259 256 251 247 244 244 244 242 240 240 240 241 244 248 251 256 260 265 271 275 280 284 288 291 296 300 303 306 308 309 309 307 305 303 302 301 299 297 295 294 292 290 288 286 286 285 285 285 285 284 283 282 282 280 279 280 281 282 282 283 283 282 282 282 284 285 289 291 289 293 297 291 285 279 269 262 257 251 247 247 248 249 250 247
261 262 259 255 252 251 252 251 247 244 244 244 244 247 250 254 258 262 266 270 275 280 283 287 291 295 299 302 305 307 309 310 309 307 306 305 304 301 299 296 294 292 289 286 285 284 283 283 283 283 282 282 281 281 280 279 279 279 279 279 281 282 282 282 280 279 280 283 286 286 290 288 279 286 291 284 266 251 249 245 243 244 244 243 241
262 265 264 262 261 259 257 254 250 249 250 249 247 249 252 255 259 263 267 270 275 279 282 286 290 294 298 301 304 306 308 310 309 309 309 307 305 302 299 296 294 291 288 286 284 284 283 283 283 282 281 279 279 278 278 278 278 278 278 278 279 280 281 282 281 277 274 274 275 276 276 275 277 286 295 291 281 269 257 249 246 248 249 245 242
258 263 264 264 264 261 261 259 256 256 257 252 249 251 253 256 261 264 267 270 274 278 281 284 288 292 296 300 303 306 308 310 311 311 312 310 306 302 298 295 293 291 288 285 284 283 283 283 284 283 280 278 275 275 275 275 276 275 275 276 277 276 277 279 280 277 272 267 266 266 265 265 271 277 283 288 290 287 276 266 261 259 257 253 251
257 261 263 264 265 264 266 267 265 264 262 256 251 252 256 259 262 264 266 269 273 277 280 283 286 290 294 298 302 305 308 310 311 312 313 311 308 302 297 293 291 290 287 284 282 282 283 282 283 282 279 276 273 273 274 274 274 273 272 272 273 274 274 275 277 277 273 266 261 260 260 258 258 263 269 275 284 287 285 283 279 272 266 264 264
258 263 265 267 268 269 272 274 273 269 263 258 256 256 258 261 263 264 266 269 273 276 278 282 285 288 292 296 299 303 307 309 310 311 312 312 308 303 296 292 290 289 286 283 282 281 281 281 282 282 279 275 273 273 274 273 273 271 271 271 271 272 273 273 274 275 273 270 266 262 260 258 256 258 262 265 267 276 283 286 285 281 277 272 270
258 262 266 269 271 273 276 275 275 272 266 262 260 258 259 261 264 265 267 269 272 275 277 279 282 285 288 292 296 302 305 308 308 309 311 311 309 303 295 290 288 286 284 281 280 281 280 280 281 281 280 276 274 274 274 273 272 272 271 271 272 272 271 272 273 274 273 272 270 267 265 265 265 262 260 262 264 267 275 280 283 285 284 280 277
259 263 268 270 271 272 272 272 275 276 272 266 263 262 262 263 264 266 268 269 271 273 275 277 279 281 285 288 293 300 304 306 306 308 310 310 308 304 295 289 287 285 283 280 279 280 279 279 280 280 279 277 275 274 274 273 272 271 271 271 271 272 272 272 272 272 273 272 270 269 268 268 268 268 267 267 269 270 274 278 281 284 284 284 284
261 264 267 269 269 268 267 271 277 278 275 273 271 269 268 267 267 267 268 269 270 272 274 275 276 278 282 285 290 297 301 303 305 307 309 308 308 306 296 289 287 285 283 281 280 279 278 278 279 279 278 276 274 274 273 273 272 271 271 270 270 271 271 271 270 271 271 270 269 268 267 266 265 268 270 270 271 273 277 280 283 288 286 282 283
262 263 268 269 269 269 269 271 276 277 278 280 278 276 273 272 271 270 270 270 270 271 272 274 274 276 279 282 287 293 296 299 303 305 306 306 308 307 299 290 286 284 282 281 280 278 278 278 278 278 276 274 273 273 272 271 271 271 271 271 271 270 269 268 268 269 268 268 268 266 264 264 264 264 266 268 269 271 275 278 282 288 286 282 283
263 265 268 270 272 274 273 273 275 277 280 281 280 279 277 275 275 274 273 272 270 269 270 272 274 275 277 279 284 288 290 295 299 300 301 303 307 307 301 291 285 283 281 280 279 277 277 278 278 277 275 274 272 271 271 270 270 271 271 272 272 271 270 269 268 267 266 267 268 267 265 264 263 262 263 265 268 270 272 277 283 287 284 283 285
267 267 269 274 277 277 275 274 275 277 280 280 280 280 279 279 279 278 277 276 272 270 270 272 274 275 275 277 280 282 285 289 292 293 295 301 307 308 302 292 285 283 280 278 277 276 277 278 277 276 274 273 272 271 271 270 270 270 271 272 273 273 271 269 268 268 267 267 267 267 267 265 264 263 262 261 263 266 269 273 281 289 291 289 288
277 276 278 282 283 281 278 277 277 278 280 280 281 282 281 283 283 282 282 280 276 274 273 273 275 275 274 274 276 276 278 281 284 286 290 298 308 310 305 294 285 282 279 277 276 276 276 276 275 274 272 271 271 271 271 271 271 271 272 272 272 271 270 269 269 269 269 268 267 266 267 267 266 264 262 262 261 262 266 268 272 281 291 293 294
290 289 290 291 290 287 283 281 280 280 281 281 283 284 284 285 284 283 283 281 279 277 275 275 274 274 273 273 272 271 273 276 279 281 287 297 308 312 308 296 286 282 278 275 274 274 274 274 273 272 271 270 270 271 272 272 272 272 273 273 273 271 270 270 270 270 270 270 269 268 267 268 267 265 264 264 264 263 264 266 267 269 277 285 291
298 297 298 298 296 293 289 286 284 284 284 284 285 286 286 284 283 282 281 281 280 278 276 275 274 272 271 269 267 267 269 273 275 279 285 295 306 313 311 300 288 281 277 274 272 272 271 271 271 270 269 269 270 271 271 272 273 273 274 274 274 273 271 271 271 272 272 272 271 271 270 270 269 268 267 266 265 265 265 264 265 265 266 271 278
303 304 304 303 301 298 294 290 288 286 286 287 288 287 285 285 285 283 282 282 280 277 275 274 272 270 268 265 263 263 265 267 270 273 279 289 302 312 314 305 291 280 276 274 272 271 271 270 271 269 268 268 269 269 270 271 271 272 274 274 274 273 273 273 273 273 273 273 272 272 271 272 272 271 269 268 266 265 265 265 264 263 262 264 269
309 310 310 309 307 303 299 296 292 291 290 290 291 289 288 288 287 285 285 283 279 276 274 273 272 270 266 262 259 259 261 263 265 267 275 286 297 308 313 308 295 282 276 274 272 270 271 272 271 269 268 268 269 269 270 270 271 272 273 274 273 273 273 275 275 274 274 274 274 274 273 273 273 272 270 269 269 267 266 266 265 265 263 263 266
314 315 316 315 311 307 304 300 297 296 294 292 292 292 291 290 288 288 287 284 280 278 277 275 273 269 265 261 258 256 257 260 262 264 273 285 292 300 307 307 299 286 276 274 272 270 271 272 271 269 269 271 271 271 271 272 273 274 274 274 275 274 275 277 278 277 277 277 276 276 275 275 274 274 273 272 271 271 270 269 268 267 266 263 263
320 321 321 319 315 312 309 306 304 301 297 296 297 297 296 293 292 291 288 285 284 283 282 279 274 268 265 261 256 254 255 257 259 262 272 283 287 293 300 301 298 287 276 272 271 271 272 272 271 272 272 272 272 272 272 272 273 274 274 275 276 277 277 278 279 279 279 278 277 276 277 278 277 275 275 275 275 275 274 273 271 269 268 265 261
323 325 324 322 320 318 315 312 308 304 302 303 304 302 300 298 296 293 289 289 290 289 286 281 275 269 265 260 254 251 252 254 256 260 270 280 283 287 293 296 293 284 275 272 271 271 272 272 273 275 275 274 273 272 271 271 272 273 273 274 275 276 278 279 279 279 280 279 278 279 280 281 280 278 278 278 278 277 275 274 273 270 269 266 261
326 327 326 325 324 322 319 315 311 309 311 311 309 307 304 301 299 297 295 296 297 296 292 285 278 273 265 257 251 248 249 250 253 259 271 280 280 282 290 292 288 280 274 274 273 272 272 273 275 277 276 274 273 272 273 273 273 274 274 274 275 275 276 277 278 279 280 281 280 281 282 283 283 281 281 281 280 279 278 276 275 273 269 267 264
328 327 327 328 328 327 324 320 319 320 320 318 316 314 312 309 306 303 301 300 299 298 293 286 281 273 263 253 247 245 246 248 254 263 277 282 279 281 288 289 283 278 276 275 275 274 274 275 278 278 276 274 273 274 275 275 275 275 275 276 276 276 276 276 278 279 280 280 280 280 282 283 283 282 283 284 283 282 281 279 278 276 272 268 265
328 329 332 334 334 333 331 328 328 326 324 323 321 319 317 314 311 308 305 302 300 297 292 284 276 267 259 252 245 243 245 249 258 274 286 284 280 282 286 284 280 277 277 276 275 275 276 278 279 278 276 275 275 275 276 276 276 276 276 277 277 278 278 278 280 281 280 280 279 280 281 281 281 281 282 283 284 282 281 280 278 277 274 270 267
333 338 340 340 339 337 334 332 331 330 329 327 325 322 320 317 314 312 309 305 302 299 291 280 269 262 256 250 245 244 247 253 269 286 289 284 281 282 281 280 279 279 278 276 275 275 277 279 280 278 276 276 275 275 276 276 277 277 277 278 278 279 280 281 281 281 281 280 279 279 280 278 277 278 280 282 282 280 279 278 277 277 274 271 268
346 348 346 344 341 338 336 336 336 335 332 329 327 324 322 320 317 315 313 309 308 302 290 277 267 259 252 248 245 244 250 267 286 292 288 284 281 280 279 280 281 281 279 278 277 276 279 280 279 277 275 275 275 275 276 276 277 278 279 280 281 281 281 281 281 280 279 277 277 276 275 275 276 278 280 281 281 282 282 280 278 277 275 272 270
351 349 346 344 343 341 341 339 336 333 331 329 327 325 323 321 318 317 314 311 311 305 292 279 268 257 249 244 242 247 268 288 294 292 287 283 280 278 279 282 283 283 282 280 278 278 280 280 277 276 275 275 275 275 277 278 278 279 279 280 280 280 279 279 278 277 275 274 274 274 274 276 279 282 285 286 286 286 286 284 283 280 275 273 271
349 348 347 345 344 342 339 335 334 334 333 333 332 329 327 324 320 319 316 314 313 307 293 278 265 253 245 242 249 273 293 297 295 291 286 281 278 279 282 284 285 285 284 282 280 280 281 279 277 275 275 275 275 277 278 279 279 280 282 283 283 284 284 284 284 284 285 285 284 284 284 286 289 291 292 291 290 290 289 289 288 283 278 277 277
349 347 345 343 340 339 338 338 338 338 337 337 337 334 332 331 330 327 322 316 311 301 283 268 256 246 247 265 291 302 304 300 296 291 285 281 280 281 283 285 286 287 287 285 283 283 282 280 278 276 275 276 277 278 279 277 277 278 281 284 287 290 290 291 293 294 293 290 287 287 289 291 294 295 295 295 293 291 288 286 283 277 273 273 276
349 346 343 341 341 341 342 342 341 340 340 341 341 340 340 340 340 336 327 316 308 299 292 292 297 302 309 312 312 309 305 300 296 291 287 284 282 282 283 286 288 290 289 286 285 284 283 282 279 277 277 278 278 278 277 276 276 275 276 280 283 284 286 287 287 285 283 281 281 284 287 290 293 295 294 294 293 291 289 286 282 276 269 266 265
347 343 343 343 343 343 342 342 341 342 343 342 342 345 345 343 345 346 343 341 345 350 349 343 335 328 324 319 314 309 305 301 296 291 287 284 283 284 286 290 292 292 289 287 286 286 284 283 280 279 279 278 279 280 279 277 275 275 277 281 281 281 282 281 278 277 277 278 280 284 286 288 289 289 289 291 292 292 290 286 280 275 271 268 265
343 342 343 343 342 340 340 341 341 340 340 338 339 345 347 344 347 352 352 351 350 347 345 342 337 333 328 322 315 310 306 302 297 292 288 287 288 290 292 295 295 293 291 289 288 286 284 282 281 280 280 280 281 283 281 278 276 276 279 280 279 279 280 278 277 277 278 279 281 283 284 285 286 285 286 289 290 289 287 284 281 279 276 274 272
341 341 342 340 339 339 340 340 339 337 336 335 335 338 341 340 340 342 343 342 342 343 346 345 341 337 332 325 318 313 309 305 300 296 294 294 294 296 297 298 296 294 292 290 288 285 283 282 282 281 281 282 284 285 283 279 277 277 279 276 272 274 275 275 275 276 278 280 281 282 282 283 284 284 286 287 289 289 289 289 288 287 286 285 283
340 340 338 337 337 338 338 337 335 335 335 335 334 336 337 337 337 338 338 339 342 346 346 343 340 337 332 326 321 317 314 312 309 305 303 302 301 301 301 298 295 293 291 289 287 285 284 283 282 282 282 284 286 285 283 280 278 277 276 273 269 270 271 272 272 275 277 279 280 280 280 281 282 284 285 286 288 288 286 285 286 287 290 291 290
338 337 335 334 334 334 334 334 334 335 338 339 339 340 342 341 341 340 340 341 344 344 342 339 337 335 331 327 324 321 319 316 313 311 309 307 305 303 301 298 295 292 290 289 287 285 285 284 284 284 284 285 285 284 283 281 279 277 275 271 270 270 271 273 275 277 277 278 278 277 278 280 281 283 285 287 289 288 283 283 285 286 286 285 284
337 335 332 331 331 332 334 334 335 339 343 343 342 345 347 344 342 343 342 342 342 340 337 336 334 332 330 327 323 320 317 315 313 312 310 307 304 301 299 297 295 293 291 289 288 286 285 286 286 286 286 286 286 285 284 282 279 276 272 270 270 272 273 275 277 278 277 277 277 276 278 281 284 285 287 288 289 287 283 282 283 284 285 285 285
338 334 331 330 330 331 333 336 339 344 346 345 343 347 348 343 340 340 338 337 337 336 335 334 333 331 328 324 320 316 314 313 312 310 307 304 302 299 297 296 294 293 292 290 288 287 287 287 287 287 286 286 287 287 286 283 279 276 272 270 271 274 276 278 280 281 281 281 280 280 282 282 282 282 282 282 283 283 281 283 286 288 288 286 287
338 333 329 328 330 333 336 339 344 347 347 345 344 343 340 334 332 331 330 332 334 333 332 330 328 327 325 320 317 314 312 311 310 308 306 304 301 299 297 294 293 292 291 289 289 289 289 289 288 287 286 287 288 289 287 283 280 277 274 271 271 274 277 280 281 282 282 283 285 286 286 283 280 279 278 281 286 287 285 287 288 285 283 284 288
333 328 326 328 332 337 340 343 346 346 346 345 344 341 335 330 329 328 329 331 331 329 328 326 324 323 321 318 316 314 312 311 309 307 306 303 302 300 296 294 293 292 291 291 291 291 291 291 290 288 287 287 288 288 287 284 280 277 273 269 268 271 274 278 282 284 286 289 291 289 285 281 279 278 280 287 292 291 288 288 285 281 283 287 288
329 327 328 331 335 339 342 344 346 345 343 343 342 340 337 334 333 333 332 332 331 329 327 325 323 322 320 319 317 315 314 312 310 308 306 304 303 301 298 296 295 293 292 292 292 293 292 292 292 290 288 288 288 288 287 284 279 276 274 271 269 271 274 277 281 285 287 288 286 281 277 276 277 280 284 290 293 290 286 284 281 279 281 281 279
328 329 332 335 338 340 343 345 344 342 342 342 341 340 339 338 337 336 336 334 333 331 329 328 327 325 323 322 320 319 318 316 313 311 308 306 305 302 299 297 294 293 293 292 293 294 293 292 292 290 289 290 290 287 284 280 277 276 275 274 271 271 272 273 278 282 282 280 277 275 276 279 283 287 291 291 289 284 280 278 277 277 278 278 280
329 331 333 337 339 340 342 343 343 342 343 344 341 340 340 339 338 338 338 336 335 334 332 331 329 328 326 325 323 322 321 318 316 312 308 307 306 302 298 296 293 292 292 293 294 295 292 292 292 292 293 295 293 287 280 276 276 278 278 277 275 272 269 268 271 274 273 273 275 277 281 286 289 290 287 282 277 275 274 275 278 279 281 283 286
331 332 334 337 339 339 341 343 344 345 344 344 343 340 339 339 340 339 338 337 336 334 333 332 330 329 327 324 322 321 319 317 315 312 308 307 305 301 298 297 295 294 294 295 296 295 293 293 294 295 299 300 294 285 280 277 278 280 280 281 281 278 273 269 268 269 269 272 277 280 282 284 283 281 279 275 273 272 274 277 280 283 286 290 293
331 332 335 337 338 340 341 344 347 347 345 346 344 341 339 339 339 339 337 336 335 333 332 331 330 328 327 324 322 320 318 316 313 310 307 306 304 302 300 297 296 296 296 295 296 295 294 294 295 298 302 302 295 288 285 285 286 286 285 285 286 285 281 274 270 270 274 278 280 282 283 284 283 284 284 283 282 283 285 287 290 292 295 296 298
330 334 336 337 338 341 343 345 346 346 346 346 344 340 338 338 338 337 335 334 333 332 331 332 331 329 328 326 323 322 321 318 316 312 309 307 304 302 299 298 299 299 298 297 297 296 295 296 299 303 305 304 301 298 296 296 297 297 297 296 294 290 284 278 274 276 281 283 284 286 289 291 293 294 292 289 289 291 293 295 296 296 297 298 298
330 334 336 337 339 341 343 345 346 346 345 344 342 340 338 337 337 336 334 333 333 332 332 332 332 330 328 326 324 323 322 320 318 315 313 310 307 303 300 299 300 300 298 297 296 295 296 300 304 307 310 310 306 302 302 304 305 305 306 305 299 292 287 284 283 283 284 285 285 286 289 291 293 293 291 289 288 289 290 292 293 295 297 297 297
331 335 337 338 338 339 342 344 344 344 343 342 341 339 337 337 336 334 333 333 331 331 332 332 331 329 327 324 323 322 320 318 316 314 312 310 308 305 302 300 300 299 298 298 297 298 302 308 310 310 311 308 304 301 302 304 306 308 309 305 299 295 293 292 290 290 290 288 285 283 284 286 288 288 287 286 286 286 287 289 292 295 296 295 294
333 335 335 337 337 337 340 342 342 341 341 340 338 337 336 336 334 333 333 332 331 330 331 331 329 327 325 323 321 320 318 317 315 314 311 309 307 304 302 302 301 300 299 299 300 301 305 306 305 304 303 299 297 298 300 301 301 300 295 290 287 286 287 290 291 291 288 284 279 276 277 280 282 282 282 283 284 286 288 291 293 295 294 292 293
332 332 333 335 336 336 337 338 338 338 337 337 336 335 336 335 334 333 333 332 330 329 329 329 328 326 325 323 321 320 318 316 315 314 312 310 308 306 302 299 298 297 295 293 291 290 290 289 288 289 291 290 290 290 290 290 288 283 279 279 280 281 283 285 284 281 277 273 272 273 275 276 277 278 279 282 285 287 290 292 292 292 290 291 291
Height
1563 1563 1562 1562 1561 1561 1560 1560 1560 1559 1558 1558 1557 1557 1557 1556 1556 1555 1555 1554 1553 1552 1551 1550 1549 1548 1547 1546 1545 1543 1542 1540 1539 1537 1535 1534 1532 1531 1530 1528 1527 1526 1524 1523 1521 1520 1519 1519 1518 1517 1516 1514 1513 1512 1511 1510 1508 1506 1505 1505 1504 1503 1503 1503 1502 1500 1498 1497 1496 1496 1497 1497 1497 1497 1497 1497 1498 1497 1497 1498 1498 1497 1498 1499 1499
1562 1561 1561 1560 1560 1559 1559 1558 1558 1557 1557 1556 1556 1555 1555 1554 1554 1553 1552 1552 1550 1549 1549 1547 1546 1545 1544 1543 1542 1541 1539 1538 1536 1534 1532 1531 1529 1527 1526 1525 1523 1522 1520 1519 1517 1516 1515 1515 1514 1513 1512 1511 1510 1509 1508 1507 1506 1504 1503 1503 1502 1501 1500 1500 1499 1498 1496 1495 1493 1491 1491 1493 1494 1494 1494 1494 1494 1494 1495 1495 1495 1495 1495 1495 1496
1560 1560 1559 1558 1558 1557 1557 1556 1555 1555 1554 1554 1553 1553 1552 1552 1552 1551 1550 1549 1548 1546 1546 1544 1543 1542 1541 1540 1538 1537 1536 1535 1533 1531 1529 1527 1526 1524 1523 1521 1520 1518 1517 1515 1513 1512 1511 1511 1510 1510 1509 1508 1507 1506 1505 1504 1503 1502 1501 1500 1500 1499 1499 1498 1498 1497 1495 1494 1493 1490 1488 1488 1488 1489 1490 1491 1491 1491 1492 1492 1492 1492 1492 1492 1493
1558 1557 1557 1556 1556 1555 1554 1553 1553 1552 1552 1551 1551 1550 1550 1549 1548 1548 1547 1546 1545 1543 1542 1541 1540 1539 1538 1536 1535 1534 1533 1531 1530 1528 1525 1523 1522 1521 1519 1518 1517 1515 1514 1512 1510 1509 1508 1507 1507 1507 1506 1504 1503 1503 1502 1501 1500 1500 1499 1497 1497 1496 1496 1497 1497 1497 1494 1493 1492 1491 1489 1488 1486 1484 1485 1487 1489 1488 1488 1489 1490 1489 1490 1490 1490
1555 1554 1554 1554 1553 1552 1551 1551 1551 1549 1549 1548 1548 1547 1547 1546 1545 1544 1544 1542 1541 1540 1539 1538 1537 1535 1534 1533 1532 1530 1529 1528 1526 1524 1522 1520 1518 1517 1515 1514 1513 1512 1510 1508 1507 1506 1505 1504 1504 1504 1503 1501 1500 1500 1499 1498 1497 1497 1496 1495 1494 1493 1493 1493 1494 1495 1494 1492 1491 1490 1490 1489 1486 1484 1482 1482 1485 1486 1486 1487 1487 1487 1487 1488 1488
1553 1552 1552 1551 1550 1550 1549 1549 1548 1546 1545 1545 1546 1545 1544 1543 1542 1541 1540 1539 1538 1537 1536 1535 1533 1532 1531 1530 1528 1527 1525 1524 1523 1521 1519 1517 1515 1513 1511 1510 1510 1509 1507 1505 1503 1502 1501 1501 1501 1501 1500 1499 1498 1497 1496 1495 1495 1494 1493 1492 1492 1491 1490 1490 1491 1492 1492 1491 1490 1489 1489 1488 1485 1484 1483 1480 1479 1482 1485 1484 1484 1485 1485 1485 1485
1550 1549 1549 1549 1547 1547 1546 1545 1544 1543 1543 1544 1543 1542 1541 1540 1539 1538 1537 1536 1535 1534 1532 1531 1530 1529 1527 1526 1525 1523 1522 1520 1519 1518 1516 1514 1512 1510 1508 1507 1506 1506 1504 1502 1500 1499 1498 1497 1497 1498 1497 1496 1495 1494 1493 1492 1492 1491 1491 1490 1489 1489 1488 1487 1487 1488 1489 1489 1488 1487 1486 1486 1484 1484 1484 1481 1476 1475 1478 1481 1482 1482 1482 1481 1482
1547 1546 1545 1545 1544 1544 1543 1542 1541 1541 1541 1541 1540 1539 1538 1537 1536 1535 1534 1533 1532 1531 1529 1528 1527 1525 1524 1522 1521 1520 1518 1517 1515 1514 1513 1511 1508 1506 1505 1504 1503 1502 1501 1499 1497 1496 1495 1494 1494 1494 1494 1493 1492 1491 1491 1490 1489 1489 1488 1487 1487 1486 1486 1485 1484 1484 1485 1486 1486 1485 1484 1484 1483 1482 1482 1481 1478 1472 1470 1474 1477 1477 1478 1478 1479
1544 1543 1542 1542 1541 1540 1540 1539 1539 1538 1538 1537 1537 1536 1535 1534 1533 1531 1530 1529 1528 1527 1526 1525 1523 1522 1521 1519 1518 1517 1515 1513 1512 1511 1509 1507 1505 1503 1502 1501 1500 1499 1498 1496 1494 1493 1492 1491 1491 1491 1491 1490 1489 1488 1488 1487 1486 1486 1485 1485 1484 1484 1483 1482 1482 1482 1482 1482 1482 1482 1481 1481 1481 1480 1480 1479 1478 1474 1468 1469 1471 1471 1472 1474 1475
1541 1541 1539 1538 1538 1537 1537 1537 1536 1535 1535 1534 1533 1533 1532 1530 1529 1527 1526 1526 1524 1523 1522 1521 1520 1518 1517 1516 1514 1513 1511 1510 1508 1507 1506 1504 1502 1501 1499 1498 1497 1496 1495 1493 1491 1490 1489 1488 1488 1488 1487 1487 1486 1485 1485 1484 1483 1483 1482 1482 1481 1481 1481 1480 1479 1479 1479 1479 1479 1479 1478 1478 1477 1477 1477 1476 1475 1473 1469 1466 1467 1467 1465 1466 1469
1538 1538 1536 1536 1535 1535 1535 1533 1532 1531 1531 1531 1529 1528 1527 1526 1525 1523 1522 1522 1520 1519 1518 1517 1516 1514 1513 1512 1510 1509 1507 1506 1504 1503 1502 1501 1499 1498 1496 1495 1494 1493 1492 1491 1489 1487 1486 1485 1484 1484 1484 1483 1483 1482 1481 1481 1480 1480 1479 1479 1479 1478 1478 1477 1477 1476 1476 1476 1476 1475 1475 1475 1474 1473 1473 1473 1472 1471 1468 1465 1464 1465 1462 1461 1463
1535 1534 1533 1533 1532 1531 1531 1529 1528 1528 1527 1526 1525 1524 1523 1521 1520 1518 1517 1517 1516 1514 1513 1512 1511 1509 1508 1507 1505 1504 1502 1501 1500 1498 1498 1497 1495 1494 1493 1491 1491 1490 1489 1487 1486 1485 1483 1483 1482 1481 1481 1480 1479 1479 1478 1478 1477 1477 1476 1476 1476 1476 1475 1475 1474 1473 1473 1473 1472 1473 1472 1472 1471 1471 1470 1470 1469 1468 1467 1463 1461 1462 1460 1458 1458
1532 1531 1529 1529 1528 1526 1526 1525 1524 1524 1522 1521 1520 1520 1518 1517 1516 1513 1512 1512 1511 1509 1508 1506 1505 1504 1503 1502 1500 1499 1497 1496 1495 1493 1493 1492 1491 1490 1488 1488 1487 1486 1485 1484 1483 1482 1480 1480 1479 1478 1477 1477 1476 1476 1475 1475 1474 1473 1473 1473 1473 1473 1472 1471 1471 1471 1470 1470 1470 1470 1469 1469 1469 1468 1468 1467 1466 1466 1465 1462 1460 1460 1458 1454 1455
1528 1528 1526 1525 1524 1522 1521 1520 1520 1519 1518 1517 1516 1515 1514 1512 1511 1508 1507 1507 1506 1504 1503 1501 1500 1499 1498 1496 1495 1494 1492 1491 1490 1489 1488 1488 1486 1485 1484 1483 1483 1482 1482 1481 1480 1479 1477 1477 1476 1475 1474 1474 1473 1472 1472 1471 1471 1470 1470 1470 1470 1470 1469 1468 1468 1468 1467 1467 1467 1466 1466 1466 1466 1466 1465 1464 1464 1463 1462 1460 1458 1457 1455 1452 1451
1525 1524 1523 1521 1520 1518 1517 1517 1515 1515 1514 1513 1512 1510 1509 1507 1505 1503 1502 1501 1500 1498 1497 1496 1494 1494 1492 1491 1489 1488 1487 1486 1485 1484 1483 1483 1481 1480 1479 1478 1478 1478 1478 1477 1477 1476 1475 1474 1473 1472 1471 1470 1470 1469 1469 1468 1468 1467 1467 1467 1466 1466 1466 1465 1465 1464 1464 1464 1464 1463 1463 1463 1463 1463 1463 1462 1461 1460 1460 1459 1457 1454 1451 1449 1448
1522 1521 1519 1518 1517 1515 1514 1513 1511 1510 1509 1508 1507 1505 1504 1502 1500 1499 1497 1496 1495 1493 1492 1490 1489 1488 1486 1485 1484 1482 1481 1480 1479 1479 1478 1477 1476 1475 1474 1473 1473 1473 1474 1474 1473 1472 1471 1471 1470 1469 1468 1467 1467 1466 1465 1465 1464 1464 1464 1463 1463 1463 1462 1461 1462 1461 1461 1461 1461 1460 1460 1460 1460 1460 1459 1459 1459 1458 1457 1457 1456 1455 1452 1447 1444
1519 1518 1516 1514 1513 1511 1509 1508 1506 1505 1504 1503 1502 1500 1499 1497 1496 1494 1492 1491 1489 1487 1486 1484 1483 1482 1480 1478 1477 1476 1476 1475 1474 1474 1473 1472 1471 1470 1469 1469 1468 1469 1469 1469 1469 1469 1468 1468 1467 1466 1465 1464 1464 1463 1462 1462 1461 1461 1460 1460 1460 1460 1459 1458 1458 1458 1458 1458 1457 1457 1457 1457 1457 1457 1456 1456 1456 1455 1455 1454 1454 1454 1453 1449 1445
1517 1515 1514 1511 1509 1508 1505 1504 1502 1501 1499 1498 1497 1496 1494 1492 1490 1488 1486 1485 1483 1482 1480 1479 1477 1475 1474 1472 1471 1470 1470 1469 1469 1469 1468 1467 1466 1465 1465 1464 1464 1465 1465 1465 1465 1465 1465 1464 1464 1463 1462 1461 1461 1460 1459 1459 1458 1457 1457 1457 1457 1456 1455 1455 1455 1455 1455 1455 1454 1454 1454 1453 1453 1453 1453 1453 1453 1452 1451 1452 1451 1451 1451 1449 1446
1514 1512 1510 1508 1505 1503 1501 1499 1498 1496 1495 1493 1492 1491 1488 1486 1485 1482 1480 1478 1477 1476 1474 1473 1471 1469 1468 1467 1466 1465 1464 1464 1464 1464 1464 1463 1462 1460 1460 1460 1460 1460 1461 1461 1461 1461 1461 1461 1460 1460 1459 1458 1458 1457 1456 1456 1455 1455 1454 1454 1453 1453 1452 1452 1452 1452 1451 1451 1451 1450 1450 1450 1450 1450 1449 1449 1449 1449 1448 1448 1448 1447 1447 1446 1445
1510 1508 1506 1504 1501 1499 1497 1495 1493 1492 1491 1489 1488 1486 1483 1481 1479 1476 1474 1472 1471 1470 1468 1467 1466 1464 1462 1461 1460 1460 1459 1459 1460 1460 1460 1459 1458 1456 1454 1455 1456 1456 1457 1457 1457 1457 1457 1457 1457 1456 1456 1455 1455 1454 1454 1453 1452 1451 1451 1451 1450 1450 1449 1448 1449 1449 1448 1448 1447 1447 1447 1447 1447 1446 1446 1446 1445 1445 1445 1445 1444 1444 1444 1443 1442
1508 1505 1503 1500 1497 1495 1493 1491 1490 1489 1488 1486 1484 1482 1479 1476 1474 1471 1469 1467 1465 1464 1463 1461 1460 1458 1456 1455 1455 1455 1454 1455 1455 1455 1455 1455 1454 1452 1449 1449 1450 1451 1452 1453 1453 1453 1454 1454 1454 1453 1453 1452 1452 1451 1450 1450 1449 1448 1448 1447 1447 1447 1446 1445 1445 1445 1445 1444 1444 1443 1443 1443 1444 1443 1442 1442 1442 1442 1442 1441 1441 1440 1440 1440 1439
1505 1503 1500 1497 1493 1491 1490 1489 1488 1486 1484 1482 1480 1477 1474 1472 1469 1466 1464 1462 1460 1459 1457 1455 1453 1451 1450 1449 1449 1449 1449 1450 1450 1450 1451 1451 1451 1449 1445 1444 1445 1446 1447 1448 1449 1449 1450 1450 1450 1450 1450 1449 1448 1448 1447 1447 1446 1445 1445 1444 1444 1443 1443 1442 1442 1441 1441 1441 1440 1439 1439 1440 1440 1439 1439 1439 1439 1439 1438 1437 1437 1437 1436 1436 1436
1503 1500 1497 1495 1491 1490 1488 1487 1486 1483 1481 1479 1477 1474 1470 1467 1465 1462 1459 1457 1455 1453 1450 1448 1446 1444 1443 1442 1443 1443 1443 1444 1444 1445 1446 1446 1447 1445 1442 1440 1441 1442 1443 1444 1445 1446 1446 1446 1446 1446 1446 1446 1446 1445 1444 1444 1443 1442 1442 1441 1441 1440 1439 1439 1438 1438 1438 1437 1437 1436 1436 1436 1436 1435 1435 1436 1435 1435 1435 1434 1433 1433 1432 1431 1432
1500 1497 1495 1493 1490 1488 1487 1485 1483 1481 1479 1477 1474 1471 1468 1465 1462 1459 1456 1453 1451 1449 1446 1443 1439 1437 1435 1434 1435 1436 1436 1437 1439 1440 1441 1442 1443 1441 1438 1436 1437 1438 1438 1440 1441 1442 1443 1443 1443 1443 1443 1443 1442 1442 1441 1441 1440 1439 1438 1438 1438 1437 1436 1436 1435 1435 1434 1434 1433 1433 1433 1433 1433 1432 1431 1432 1432 1431 1431 1430 1429 1429 1429 1428 1428
1497 1494 1492 1490 1488 1487 1485 1483 1481 1479 1477 1474 1472 1469 1467 1464 1461 1458 1455 1452 1450 1447 1443 1438 1434 1431 1427 1426 1429 1430 1432 1434 1436 1437 1439 1440 1440 1438 1435 1433 1433 1434 1435 1436 1438 1438 1439 1440 1440 1440 1440 1440 1439 1439 1438 1437 1437 1436 1435 1435 1434 1434 1433 1432 1432 1432 1431 1431 1430 1429 1430 1430 1429 1428 1428 1428 1428 1428 1427 1427 1426 1426 1426 1425 1424
1494 1492 1489 1488 1486 1484 1483 1481 1479 1477 1474 1472 1469 1466 1464 1461 1458 1455 1452 1449 1446 1443 1438 1433 1429 1426 1423 1423 1425 1427 1430 1433 1435 1436 1437 1438 1437 1435 1432 1430 1430 1431 1431 1433 1434 1435 1436 1436 1437 1437 1437 1436 1436 1435 1435 1434 1433 1433 1432 1431 1431 1430 1429 1429 1428 1428 1428 1427 1427 1426 1426 1426 1426 1425 1425 1425 1425 1425 1424 1423 1423 1422 1422 1421 1420
1492 1490 1488 1486 1484 1482 1481 1479 1477 1475 1472 1469 1466 1463 1460 1457 1453 1450 1447 1444 1441 1437 1433 1428 1424 1422 1421 1421 1424 1427 1429 1431 1433 1434 1435 1435 1435 1433 1430 1428 1427 1428 1428 1430 1431 1432 1433 1433 1434 1434 1433 1433 1432 1432 1431 1431 1430 1430 1429 1428 1427 1427 1426 1425 1425 1424 1424 1424 1423 1423 1423 1423 1422 1422 1422 1422 1421 1421 1421 1420 1420 1419 1419 1418 1417
1491 1489 1487 1485 1483 1481 1479 1477 1475 1472 1469 1466 1464 1460 1457 1454 1450 1446 1443 1440 1436 1432 1427 1423 1420 1420 1420 1421 1424 1427 1429 1431 1432 1432 1432 1432 1432 1430 1428 1426 1425 1425 1425 1427 1428 1430 1430 1431 1430 1430 1430 1429 1429 1428 1428 1428 1427 1426 1426 1425 1424 1423 1422 1422 1421 1421 1421 1420 1420 1420 1419 1419 1419 1419 1419 1419 1418 1418 1417 1416 1416 1416 1415 1414 1413
1490 1488 1486 1485 1483 1480 1478 1475 1472 1470 1466 1463 1460 1457 1454 1450 1446 1443 1439 1435 1432 1428 1423 1420 1419 1419 1420 1422 1425 1428 1429 1430 1430 1429 1429 1429 1429 1428 1427 1425 1423 1423 1423 1424 1426 1427 1427 1427 1427 1427 1427 1426 1425 1425 1425 1424 1424 1423 1422 1421 1421 1420 1419 1418 1418 1417 1417 1417 1417 1416 1416 1416 1416 1416 1415 1415 1415 1414 1413 1412 1412 1412 1411 1410 1409
1489 1488 1486 1484 1482 1479 1476 1473 1470 1467 1464 1461 1458 1455 1451 1447 1443 1439 1434 1431 1427 1424 1421 1419 1418 1418 1420 1423 1426 1428 1429 1428 1427 1427 1427 1427 1427 1426 1425 1423 1422 1421 1421 1422 1423 1424 1424 1424 1424 1423 1423 1423 1422 1422 1422 1421 1420 1420 1419 1418 1417 1416 1415 1414 1414 1413 1413 1413 1412 1412 1411 1412 1412 1412 1412 1411 1411 1410 1409 1408 1408 1408 1407 1406 1405
1489 1487 1485 1482 1479 1477 1474 1471 1468 1466 1463 1460 1456 1452 1448 1444 1439 1435 1430 1426 1423 1420 1418 1418 1419 1420 1423 1425 1427 1427 1426 1426 1425 1425 1425 1425 1425 1424 1423 1422 1420 1419 1419 1419 1420 1420 1421 1421 1420 1420 1419 1419 1419 1419 1418 1418 1418 1417 1416 1415 1414 1413 1412 1411 1410 1410 1409 1409 1408 1407 1407 1407 1407 1407 1407 1407 1406 1406 1406 1405 1404 1404 1404 1404 1403
1488 1485 1482 1480 1477 1474 1472 1469 1466 1464 1461 1458 1454 1450 1446 1441 1437 1432 1428 1425 1423 1421 1421 1422 1424 1425 1426 1426 1426 1425 1424 1424 1424 1424 1424 1424 1423 1422 1421 1420 1418 1417 1416 1416 1417 1417 1417 1417 1417 1416 1416 1415 1415 1415 1415 1414 1414 1414 1414 1413 1412 1410 1410 1409 1408 1407 1406 1406 1405 1404 1404 1404 1403 1403 1402 1402 1402 1402 1401 1401 1400 1400 1400 1400 1400
1487 1484 1481 1478 1475 1473 1471 1468 1465 1462 1459 1456 1453 1449 1445 1441 1437 1433 1430 1428 1427 1427 1427 1427 1427 1426 1425 1425 1424 1423 1423 1423 1423 1422 1422 1422 1421 1420 1419 1417 1415 1414 1414 1414 1414 1414 1414 1413 1413 1412 1412 1411 1411 1412 1412 1411 1411 1410 1411 1411 1410 1408 1407 1406 1405 1404 1403 1402 1401 1401 1400 1400 1400 1400 1399 1398 1398 1397 1397 1396 1396 1396 1395 1395 1395
1485 1482 1480 1477 1475 1472 1469 1466 1463 1460 1457 1454 1450 1447 1444 1441 1438 1435 1433 1431 1430 1428 1427 1426 1425 1425 1424 1423 1423 1422 1422 1421 1421 1421 1420 1420 1419 1418 1416 1414 1413 1412 1411 1411 1411 1411 1410 1410 1409 1409 1408 1407 1408 1408 1408 1407 1407 1407 1408 1408 1407 1405 1403 1402 1400 1399 1399 1398 1398 1397 1397 1396 1396 1396 1395 1395 1394 1393 1393 1392 1391 1391 1390 1390 1389
1483 1480 1478 1475 1473 1469 1466 1463 1460 1457 1454 1450 1447 1445 1443 1440 1438 1435 1433 1431 1429 1427 1426 1425 1424 1423 1422 1422 1421 1421 1420 1420 1419 1419 1418 1417 1416 1414 1413 1411 1410 1409 1408 1408 1408 1407 1407 1407 1406 1405 1404 1404 1404 1405 1404 1404 1404 1404 1404 1405 1403 1400 1399 1397 1396 1395 1395 1394 1394 1394 1393 1392 1392 1392 1391 1391 1390 1389 1389 1388 1387 1386 1385 1384 1384
1481 1479 1476 1473 1470 1467 1464 1461 1458 1455 1451 1448 1445 1443 1441 1438 1436 1434 1432 1430 1428 1426 1425 1424 1423 1422 1421 1420 1420 1419 1418 1418 1417 1416 1415 1414 1412 1411 1409 1408 1407 1406 1405 1405 1404 1404 1403 1403 1403 1402 1401 1400 1401 1401 1401 1400 1400 1400 1401 1400 1398 1396 1394 1393 1392 1392 1391 1391 1390 1390 1389 1388 1387 1387 1387 1387 1387 1386 1385 1384 1383 1382 1381 1380 1379
1481 1478 1475 1472 1469 1466 1463 1460 1456 1453 1449 1446 1443 1440 1438 1436 1434 1432 1431 1429 1427 1426 1424 1423 1421 1420 1419 1419 1418 1417 1416 1415 1414 1413 1411 1410 1408 1407 1406 1405 1404 1403 1402 1402 1401 1401 1400 1399 1399 1398 1397 1397 1397 1398 1397 1396 1396 1396 1396 1395 1393 1392 1390 1388 1388 1388 1387 1387 1386 1386 1385 1384 1383 1383 1383 1383 1383 1383 1382 1381 1380 1379 1378 1376 1375
1479 1475 1472 1469 1466 1463 1461 1457 1453 1450 1447 1444 1441 1438 1436 1435 1433 1431 1430 1428 1426 1425 1423 1422 1420 1419 1418 1417 1416 1415 1414 1412 1411 1410 1408 1406 1405 1404 1403 1402 1401 1400 1399 1399 1398 1397 1397 1396 1395 1395 1395 1393 1393 1394 1394 1393 1392 1392 1392 1391 1389 1387 1386 1384 1384 1383 1383 1383 1382 1382 1381 1380 1379 1379 1379 1379 1379 1379 1379 1378 1376 1375 1373 1372 1370
1475 1472 1469 1466 1463 1460 1457 1454 1451 1447 1445 1442 1440 1437 1435 1433 1431 1430 1428 1426 1425 1423 1422 1420 1419 1417 1416 1415 1414 1413 1411 1410 1408 1406 1405 1404 1402 1401 1400 1399 1398 1397 1396 1396 1395 1394 1393 1393 1392 1392 1391 1390 1389 1390 1390 1389 1388 1388 1388 1387 1385 1383 1382 1380 1380 1379 1378 1378 1378 1377 1377 1377 1376 1376 1376 1376 1376 1376 1375 1373 1372 1371 1368 1367 1366
1470 1468 1466 1463 1461 1457 1454 1451 1448 1446 1443 1441 1438 1436 1434 1432 1430 1428 1426 1424 1423 1421 1420 1418 1417 1416 1414 1413 1412 1410 1408 1407 1405 1403 1402 1401 1400 1399 1398 1396 1395 1394 1393 1393 1392 1391 1390 1390 1389 1389 1388 1387 1386 1386 1386 1386 1384 1384 1384 1384 1382 1380 1378 1377 1376 1375 1374 1374 1374 1373 1373 1373 1372 1372 1372 1372 1372 1372 1371 1370 1368 1366 1364 1363 1363
1468 1466 1463 1461 1458 1455 1452 1449 1447 1444 1442 1439 1437 1435 1432 1430 1428 1426 1424 1422 1420 1419 1418 1416 1415 1414 1412 1410 1409 1407 1406 1404 1402 1401 1399 1398 1397 1396 1395 1394 1393 1391 1390 1389 1389 1388 1387 1386 1386 1385 1384 1384 1383 1382 1382 1382 1381 1380 1380 1380 1379 1377 1375 1374 1373 1372 1371 1370 1370 1369 1369 1368 1368 1368 1368 1368 1367 1367 1367 1366 1363 1362 1361 1361 1358
1466 1464 1461 1458 1455 1453 1450 1448 1446 1443 1441 1438 1435 1433 1430 1428 1426 1424 1422 1420 1419 1417 1416 1414 1413 1411 1410 1408 1406 1405 1403 1401 1400 1398 1396 1395 1394 1393 1392 1391 1390 1388 1387 1386 1385 1385 1383 1382 1382 1382 1381 1381 1380 1379 1378 1378 1377 1376 1376 1376 1375 1374 1373 1372 1370 1369 1368 1367 1366 1365 1365 1365 1365 1364 1364 1364 1364 1363 1362 1360 1358 1358 1358 1355 1351
1463 1461 1458 1455 1453 1450 1448 1446 1444 1441 1439 1436 1434 1431 1429 1427 1424 1422 1420 1418 1417 1415 1413 1412 1411 1409 1407 1405 1403 1402 1400 1399 1397 1395 1393 1392 1391 1390 1389 1388 1387 1385 1384 1383 1382 1381 1380 1379 1378 1378 1378 1377 1377 1376 1375 1374 1373 1372 1372 1372 1372 1371 1371 1370 1368 1366 1365 1363 1362 1361 1361 1361 1361 1361 1360 1360 1360 1359 1357 1355 1354 1354 1351 1348 1346
1461 1458 1455 1453 1451 1448 1446 1444 1442 1439 1437 1435 1432 1429 1427 1425 1423 1421 1419 1417 1415 1413 1412 1410 1408 1406 1404 1403 1401 1399 1398 1396 1394 1392 1391 1389 1388 1387 1386 1385 1384 1382 1381 1380 1379 1378 1377 1375 1375 1374 1374 1374 1373 1372 1371 1370 1370 1369 1368 1368 1368 1368 1367 1366 1364 1362 1360 1359 1358 1357 1357 1357 1357 1357 1356 1355 1354 1352 1351 1350 1349 1348 1345 1343 1342
1458 1456 1453 1451 1449 1446 1444 1442 1440 1438 1435 1433 1431 1428 1426 1424 1421 1419 1417 1415 1413 1411 1409 1408 1406 1404 1402 1400 1398 1396 1395 1393 1392 1390 1388 1387 1385 1384 1383 1382 1381 1380 1378 1377 1376 1375 1374 1372 1371 1370 1370 1370 1370 1369 1368 1368 1367 1366 1365 1364 1364 1363 1363 1361 1359 1357 1356 1356 1355 1355 1354 1354 1353 1352 1351 1349 1348 1347 1347 1346 1344 1343 1341 1339 1338
1455 1453 1451 1449 1447 1445 1442 1440 1438 1436 1434 1431 1429 1427 1424 1422 1420 1418 1416 1414 1412 1409 1407 1406 1403 1401 1399 1397 1395 1393 1392 1390 1389 1387 1385 1384 1382 1381 1379 1378 1378 1377 1375 1374 1373 1371 1370 1369 1368 1367 1367 1366 1366 1365 1365 1364 1364 1363 1362 1361 1360 1358 1357 1356 1355 1354 1353 1352 1352 1351 1350 1349 1348 1347 1346 1344 1343 1342 1342 1341 1340 1338 1337 1335 1334
1453 1451 1449 1447 1444 1442 1440 1438 1436 1434 1432 1430 1428 1426 1423 1421 1419 1417 1414 1412 1410 1407 1405 1403 1401 1399 1397 1395 1392 1390 1389 1387 1386 1384 1383 1381 1380 1378 1376 1375 1374 1374 1372 1371 1369 1368 1367 1366 1365 1364 1363 1362 1362 1361 1360 1360 1360 1358 1357 1356 1355 1354 1353 1352 1351 1350 1349 1348 1347 1346 1345 1344 1343 1342 1341 1340 1339 1338 1337 1336 1335 1334 1333 1331 1330
1451 1448 1446 1444 1442 1440 1438 1436 1434 1432 1430 1428 1426 1424 1422 1420 1417 1415 1412 1410 1408 1406 1403 1401 1399 1397 1394 1392 1390 1388 1386 1384 1383 1382 1380 1378 1377 1375 1373 1372 1372 1371 1369 1368 1366 1365 1364 1363 1362 1361 1359 1358 1357 1356 1355 1355 1354 1353 1353 1352 1350 1349 1348 1348 1347 1346 1345 1344 1342 1341 1340 1339 1338 1337 1336 1336 1335 1334 1333 1332 1331 1330 1328 1327 1325
1448 1446 1444 1442 1440 1438 1436 1434 1432 1430 1428 1426 1424 1422 1420 1418 1415 1413 1410 1408 1406 1403 1401 1399 1397 1395 1392 1390 1388 1386 1384 1382 1380 1378 1377 1376 1374 1373 1371 1369 1369 1368 1366 1364 1363 1361 1360 1360 1359 1357 1356 1354 1351 1351 1351 1350 1349 1349 1348 1347 1346 1344 1343 1342 1342 1341 1340 1338 1337 1336 1335 1334 1333 1332 1332 1331 1331 1330 1329 1328 1327 1325 1323 1322 1321
1446 1445 1442 1441 1439 1437 1435 1433 1431 1429 1427 1424 1422 1421 1418 1416 1414 1411 1409 1406 1403 1401 1399 1397 1395 1392 1390 1388 1385 1383 1381 1379 1377 1375 1373 1372 1371 1370 1368 1366 1365 1364 1363 1361 1359 1358 1357 1357 1356 1354 1353 1351 1348 1347 1347 1346 1346 1347 1345 1343 1342 1341 1340 1339 1337 1336 1335 1333 1332 1331 1330 1330 1329 1328 1327 1327 1326 1325 1324 1323 1322 1320 1319 1317 1316
1444 1442 1440 1439 1437 1435 1433 1431 1429 1427 1425 1423 1421 1418 1416 1414 1412 1409 1407 1404 1401 1399 1396 1394 1392 1390 1388 1385 1383 1381 1379 1377 1375 1372 1370 1368 1367 1366 1366 1365 1363 1360 1359 1359 1358 1356 1356 1356 1354 1352 1350 1348 1346 1344 1343 1343 1343 1342 1341 1339 1338 1337 1337 1335 1333 1332 1330 1329 1328 1328 1327 1326 1325 1324 1323 1323 1322 1320 1319 1318 1317 1315 1314 1313 1312